Flag for France Weather past 2 weeks in Mulhouse, France

Now
99 °F

Scattered clouds.


Feels Like: 101 °F
Forecast: 66 / 75 °F
Wind: 5 mph from West

Location: Bale-Mulhouse

Current Time: Jul 7, 2015 at 5:24:21 PM

Latest Report: Jul 7, 2015 at 5:00 PM


Visibility: N/A

Pressure: 29.80 "Hg

Humidity: 33%

Dew point: 64 °F

Location of MulhouseLocation

Historic Weather in Mulhouse — Graph

°F

Mulhouse temperature yesterday

Maximum temperature yesterday: 88 °F (at 5:30 PM)
Minimum temperature yesterday: 70 °F (at 6:00 AM)
Average temperature yesterday: 78 °F

Past Weeks' High & Low Weather Summary

 TemperatureHumidityPressure
High99 °F (Jul 5, 5:30 PM)100% (Jun 24, 2:30 AM)30.24 "Hg (Jun 24, 2:30 AM)
Low45 °F (Jun 24, 4:30 AM)26% (Jun 26, 3:00 PM)29.74 "Hg (Jun 22, 9:00 PM)
Average73 °F63%30.11 "Hg
* Reported Jun 22 4:00 PM — Jul 7 4:00 PM, Mulhouse, Weather by CustomWeather, © 2015

Note: Actual official high and low records may vary slightly from our data, if they occured in-between our weather recording intervals... More about our weather records

Advertising

Mulhouse weather history for previous 24 hours

 ConditionsComfort  
Time TempWeatherWind HumidityBarometerVisibility
4:00 PM
Tue, Jul 7
97 °FScattered clouds.3 mph32%29.83 "HgN/A
3:30 PM95 °FBroken clouds.8 mph36%29.86 "HgN/A
3:00 PM95 °FBroken clouds.9 mph36%29.86 "HgN/A
2:30 PM95 °FBroken clouds.7 mph39%29.89 "HgN/A
2:00 PM93 °FBroken clouds.6 mph44%29.89 "HgN/A
1:30 PM93 °FBroken clouds.7 mph47%29.89 "HgN/A
1:00 PM91 °FPartly sunny.8 mph46%29.92 "HgN/A
12:30 PM91 °FPartly sunny.8 mph49%29.92 "HgN/A
12:00 PM90 °FPartly sunny.8 mph49%29.92 "HgN/A
11:30 AM90 °FPartly sunny.5 mph49%29.92 "HgN/A
11:00 AM88 °FSunny.3 mph52%29.95 "Hg10 mi
10:30 AM86 °FPassing clouds.5 mph52%29.95 "HgN/A
10:00 AM84 °FSunny.3 mph55%29.95 "Hg10 mi
9:30 AM82 °FPassing clouds.5 mph58%29.95 "HgN/A
9:00 AM79 °FPassing clouds.6 mph61%29.98 "HgN/A
8:30 AM77 °FPassing clouds.6 mph65%29.98 "HgN/A
8:00 AM73 °FSunny.3 mph74%29.98 "Hg10 mi
7:30 AM70 °FSunny.1 mph83%29.98 "Hg10 mi
7:00 AM66 °FSunny.1 mph88%29.98 "Hg10 mi
6:30 AM64 °FClear.No wind94%30.01 "Hg10 mi
6:00 AM64 °FClear.3 mph88%29.98 "Hg10 mi
5:30 AM64 °FClear.2 mph94%29.98 "Hg10 mi
5:00 AM64 °FClear.3 mph94%30.01 "Hg10 mi
4:30 AM64 °FClear.2 mph94%30.01 "Hg10 mi
4:00 AM64 °FClear.1 mph94%30.01 "Hg10 mi
3:30 AM66 °FClear.2 mph88%30.01 "Hg10 mi
3:00 AM66 °FClear.1 mph88%30.01 "Hg10 mi
2:30 AM66 °FClear.3 mph88%30.04 "Hg10 mi
2:00 AM66 °FClear.1 mph88%30.04 "Hg10 mi
1:30 AM66 °FClear.2 mph88%30.04 "Hg10 mi
1:00 AM68 °FClear.2 mph88%30.04 "Hg10 mi
12:30 AM68 °FClear.1 mph88%30.07 "Hg10 mi
12:00 AM70 °FClear.2 mph83%30.07 "Hg10 mi
11:30 PM
Mon, Jul 6
72 °FClear.2 mph78%30.07 "Hg10 mi
11:00 PM72 °FClear.2 mph83%30.07 "Hg10 mi
10:30 PM73 °FClear.5 mph78%30.07 "Hg10 mi
10:00 PM73 °FSunny.2 mph78%30.07 "Hg10 mi
9:30 PM79 °FSunny.2 mph70%30.07 "Hg10 mi
9:00 PM82 °FSunny.2 mph62%30.07 "Hg10 mi
8:30 PM84 °FSunny.3 mph51%30.07 "Hg10 mi
8:00 PM86 °FSunny.3 mph52%30.07 "Hg10 mi
7:30 PM86 °FPassing clouds.5 mph49%30.07 "HgN/A
7:00 PM86 °FSunny.6 mph49%30.07 "Hg10 mi
6:30 PM88 °FPassing clouds.5 mph43%30.07 "HgN/A
6:00 PM88 °FPassing clouds.3 mph40%30.07 "HgN/A
5:30 PM88 °FPassing clouds.5 mph40%30.09 "HgN/A
5:00 PM86 °FSunny.6 mph43%30.09 "Hg10 mi
Weather by CustomWeather, © 2015

See weather overviewHow to use our weather pages